GW2484 Weather Reports


Display with metric or nautical units.
time (UTC)temp
F
wind
direction
speed
MPH
gust
MPH
rain 1hr
in
rain 24hr
in
rain mn
in
humidity
%
barometer
mb
20260902165511 95 190 5.0 10.0 0.00 0.00 0.00 48 1017.1
20260902165008 94 202 2.0 10.0 0.00 0.00 0.00 50 1017.1
20260902164503 93 214 6.0 10.0 0.00 0.00 0.00 49 1017.1
20260902164012 94 242 4.0 10.0 0.00 0.00 0.00 49 1017.2
20260902163504 93 219 6.0 10.0 0.00 0.00 0.00 49 1017.2
20260902163023 93 192 5.0 10.0 0.00 0.00 0.00 51 1017.2
20260902162512 93 254 5.0 10.0 0.00 0.00 0.00 50 1017.3
20260902162004 93 218 5.0 11.0 0.00 0.00 0.00 53 1017.2
20260902161526 92 196 5.0 10.0 0.00 0.00 0.00 52 1017.3
20260902161006 92 243 6.0 12.0 0.00 0.00 0.00 53 1017.3
20260902160517 92 202 6.0 13.0 0.00 0.00 0.00 52 1017.3
20260902160016 92 207 6.0 13.0 0.00 0.00 0.00 53 1017.2
20260902155505 91 237 7.0 12.0 0.00 0.00 0.00 53 1017.3
20260902155012 91 210 4.0 14.0 0.00 0.00 0.00 55 1017.3
20260902154520 91 227 4.0 14.0 0.00 0.00 0.00 55 1017.3
20260902154004 90 200 5.0 13.0 0.00 0.00 0.00 55 1017.2
20260902153515 91 254 3.0 9.0 0.00 0.00 0.00 55 1017.3
20260902153012 91 242 4.0 12.0 0.00 0.00 0.00 55 1017.3
20260902152515 90 199 7.0 12.0 0.00 0.00 0.00 56 1017.3
20260902152011 90 208 4.0 11.0 0.00 0.00 0.00 55 1017.3
20260902151509 91 213 3.0 11.0 0.00 0.00 0.00 55 1017.2
20260902151015 90 224 4.0 11.0 0.00 0.00 0.00 59 1017.3
20260902150510 88 239 3.0 10.0 0.00 0.00 0.00 59 1017.3
20260902150007 88 228 3.0 11.0 0.00 0.00 0.00 59 1017.3
20260902145512 88 262 6.0 11.0 0.00 0.00 0.00 59 1017.3
20260902145011 88 227 6.0 10.0 0.00 0.00 0.00 60 1017.3
20260902144530 87 198 3.0 10.0 0.00 0.00 0.00 60 1017.4
20260902144012 87 214 3.0 10.0 0.00 0.00 0.00 60 1017.4
20260902143507 87 204 4.0 9.0 0.00 0.00 0.00 61 1017.5
20260902143025 87 225 3.0 9.0 0.00 0.00 0.00 63 1017.5
20260902142509 86 220 4.0 8.0 0.00 0.00 0.00 63 1017.5
20260902142006 85 231 1.0 7.0 0.00 0.00 0.00 64 1017.5
20260902141533 85 208 2.0 8.0 0.00 0.00 0.00 63 1017.4
20260902141008 85 246 2.0 8.0 0.00 0.00 0.00 64 1017.5
20260902140516 85 202 2.0 8.0 0.00 0.00 0.00 64 1017.5
20260902140023 84 235 4.0 9.0 0.00 0.00 0.00 64 1017.4
20260902135506 84 190 2.0 9.0 0.00 0.00 0.00 64 1017.5
20260902135017 84 183 4.0 8.0 0.00 0.00 0.00 64 1017.4
20260902134517 84 204 3.0 8.0 0.00 0.00 0.00 65 1017.4
20260902134008 83 196 3.0 7.0 0.00 0.00 0.00 66 1017.5
20260902133520 83 220 2.0 7.0 0.00 0.00 0.00 67 1017.5
20260902133016 82 169 1.0 4.0 0.00 0.00 0.00 68 1017.5
20260902132520 81 192 1.0 4.0 0.00 0.00 0.00 69 1017.5
20260902132012 81 173 1.0 4.0 0.00 0.00 0.00 70 1017.4
20260902131513 80 167 1.0 5.0 0.00 0.00 0.00 72 1017.4
20260902131016 79 210 1.0 5.0 0.00 0.00 0.00 72 1017.3
20260902130512 78 216 3.0 5.0 0.00 0.00 0.00 74 1017.4
20260902130024 78 203 1.0 4.0 0.00 0.00 0.00 75 1017.4
20260902125513 77 199 3.0 5.0 0.00 0.00 0.00 75 1017.4
20260902125012 77 207 2.0 5.0 0.00 0.00 0.00 76 1017.3
20260902124531 76 196 1.0 3.0 0.00 0.00 0.00 77 1017.2
20260902124015 76 193 0.0 3.0 0.00 0.00 0.00 77 1017.2
20260902123509 76 193 1.0 3.0 0.00 0.00 0.00 77 1017.1
20260902123031 75 193 0.0 2.0 0.00 0.00 0.00 78 1017.0
20260902122512 75 193 0.0 2.0 0.00 0.00 0.00 78 1017.0
20260902122009 75 193 0.0 2.0 0.00 0.00 0.00 79 1016.8
20260902121531 75 193 0.0 2.0 0.00 0.00 0.00 79 1016.8
20260902121014 75 193 0.0 2.0 0.00 0.00 0.00 79 1016.8
20260902120516 75 193 0.0 2.0 0.00 0.00 0.00 79 1016.8
20260902120028 75 193 0.0 1.0 0.00 0.00 0.00 79 1016.7
20260902115508 75 193 0.0 0.0 0.00 0.00 0.00 79 1016.7
20260902115021 75 193 0.0 0.0 0.00 0.00 0.00 79 1016.7
20260902114527 75 193 0.0 0.0 0.00 0.00 0.00 78 1016.5
20260902114010 75 193 0.0 0.0 0.00 0.00 0.00 78 1016.5
20260902113515 75 193 0.0 0.0 0.00 0.00 0.00 78 1016.4
20260902113022 75 193 0.0 0.0 0.00 0.00 0.00 77 1016.4
20260902112517 76 193 0.0 0.0 0.00 0.00 0.00 77 1016.3
20260902112014 76 193 0.0 0.0 0.00 0.00 0.00 77 1016.2
20260902111522 76 193 0.0 0.0 0.00 0.00 0.00 77 1016.1
20260902111017 76 193 0.0 1.0 0.00 0.00 0.00 76 1016.1
20260902110512 76 193 0.0 1.0 0.00 0.00 0.00 76 1016.2
20260902110012 77 193 0.0 0.0 0.00 0.00 0.00 76 1016.2
20260902105514 77 193 0.0 0.0 0.00 0.00 0.00 74 1016.2
20260902105017 77 193 0.0 0.0 0.00 0.00 0.00 74 1016.1
20260902104539 77 193 0.0 0.0 0.00 0.00 0.00 73 1016.1
20260902104014 78 193 0.0 0.0 0.00 0.00 0.00 73 1016.1
20260902103509 78 193 0.0 0.0 0.00 0.00 0.00 72 1016.0
20260902103034 78 193 0.0 1.0 0.00 0.00 0.00 71 1016.0
20260902102514 78 193 0.0 3.0 0.00 0.00 0.00 71 1016.0
20260902102011 78 193 0.0 3.0 0.00 0.00 0.00 70 1015.9
20260902101529 78 193 0.0 2.0 0.00 0.00 0.00 70 1015.9
20260902101012 79 193 1.0 2.0 0.00 0.00 0.00 70 1015.9
20260902100520 79 193 0.0 2.0 0.00 0.00 0.00 70 1015.9
20260902100027 79 193 1.0 2.0 0.00 0.00 0.00 69 1015.8
20260902095512 79 193 1.0 2.0 0.00 0.00 0.00 69 1015.8
20260902095018 79 193 0.0 2.0 0.00 0.00 0.00 69 1015.8
20260902094526 79 193 0.0 2.0 0.00 0.00 0.00 68 1015.7
20260902094018 80 193 0.0 3.0 0.00 0.00 0.00 68 1015.6
20260902093516 80 193 1.0 7.0 0.00 0.00 0.00 68 1015.6
20260902093035 80 168 0.0 7.0 0.00 0.00 0.00 67 1015.5
20260902092517 80 164 2.0 7.0 0.00 0.00 0.00 67 1015.5
20260902092015 80 174 3.0 7.0 0.00 0.00 0.00 67 1015.4
20260902091526 80 150 4.0 6.0 0.00 0.00 0.00 67 1015.5
20260902091022 80 167 3.0 6.0 0.00 0.00 0.00 66 1015.6
20260902090515 80 156 2.0 3.0 0.00 0.00 0.00 66 1015.7
20260902090034 80 162 1.0 2.0 0.00 0.00 0.00 65 1015.7
20260902085515 80 162 0.0 2.0 0.00 0.00 0.00 65 1015.7
20260902085015 80 181 1.0 2.0 0.00 0.00 0.00 65 1015.7
20260902084520 80 180 0.0 2.0 0.00 0.00 0.00 64 1015.7
20260902084004 81 181 0.0 2.0 0.00 0.00 0.00 64 1015.7
20260902083513 81 181 0.0 2.0 0.00 0.00 0.00 64 1015.7
20260902083012 81 185 0.0 2.0 0.00 0.00 0.00 64 1015.8
20260902082503 81 185 0.0 2.0 0.00 0.00 0.00 63 1015.8
20260902082013 81 185 0.0 2.0 0.00 0.00 0.00 63 1015.8
20260902081507 81 196 0.0 2.0 0.00 0.00 0.00 63 1015.7
20260902081015 82 196 0.0 2.0 0.00 0.00 0.00 63 1015.6
20260902080512 82 196 0.0 2.0 0.00 0.00 0.00 63 1015.7
20260902080010 82 196 0.0 3.0 0.00 0.00 0.00 61 1015.7
20260902075514 83 196 0.0 3.0 0.00 0.00 0.00 61 1015.7
20260902075009 83 196 1.0 4.0 0.00 0.00 0.00 59 1015.7
20260902074505 83 200 2.0 4.0 0.00 0.00 0.00 58 1015.7
20260902074012 84 198 1.0 4.0 0.00 0.00 0.00 58 1015.7
20260902073507 84 197 2.0 4.0 0.00 0.00 0.00 57 1015.8
20260902073033 84 195 2.0 8.0 0.00 0.00 0.00 57 1015.8
20260902072511 84 196 2.0 8.0 0.00 0.00 0.00 56 1015.7
20260902072003 84 204 2.0 7.0 0.00 0.00 0.00 56 1015.7
20260902071530 84 212 3.0 7.0 0.00 0.00 0.00 56 1015.7
20260902071008 84 206 3.0 7.0 0.00 0.00 0.00 56 1015.7
20260902070504 85 198 3.0 7.0 0.00 0.00 0.00 55 1015.7
20260902070023 85 196 3.0 7.0 0.00 0.00 0.00 55 1015.7
20260902065508 85 196 2.0 7.0 0.00 0.00 0.00 55 1015.6
20260902065018 85 196 3.0 7.0 0.00 0.00 0.00 55 1015.6
20260902064520 85 198 2.0 7.0 0.00 0.00 0.00 55 1015.7
20260902064005 85 175 2.0 7.0 0.00 0.00 0.00 55 1015.7
20260902063517 84 189 2.0 7.0 0.00 0.00 0.00 55 1015.7
20260902063017 84 191 3.0 6.0 0.00 0.00 0.00 56 1015.6
20260902062504 83 160 2.0 6.0 0.00 0.00 0.00 57 1015.6
20260902062013 83 183 1.0 4.0 0.00 0.00 0.00 57 1015.6
20260902061514 83 198 1.0 4.0 0.00 0.00 0.00 58 1015.6
20260902061028 83 194 1.0 4.0 0.00 0.00 0.00 59 1015.6
20260902060512 83 189 1.0 3.0 0.00 0.00 0.00 59 1015.5
20260902060010 83 182 1.0 3.0 0.00 0.00 0.00 59 1015.5
20260902055514 83 191 0.0 2.0 0.00 0.00 0.00 60 1015.4
20260902055010 83 191 1.0 2.0 0.00 0.00 0.00 60 1015.4
20260902054520 83 213 0.0 2.0 0.00 0.00 0.00 59 1015.4
20260902054013 82 213 0.0 2.0 0.00 0.00 0.00 59 1015.4
20260902053507 82 213 0.0 2.0 0.00 0.00 0.00 59 1015.3
20260902053033 83 213 0.0 2.0 0.00 0.00 0.00 59 1015.2
20260902052516 83 213 0.0 2.0 0.00 0.00 0.00 59 1015.1
20260902052017 83 213 0.0 2.0 0.00 0.00 0.00 59 1015.1
20260902051531 83 213 1.0 2.0 0.00 0.00 0.00 59 1015.2
20260902051009 82 213 1.0 2.0 0.00 0.00 0.00 59 1015.1
20260902050504 82 216 0.0 2.0 0.00 0.00 0.00 60 1015.1
20260902050028 82 216 1.0 3.0 0.00 0.00 0.00 60 1015.0
20260902045510 82 217 0.0 3.0 0.00 0.00 0.00 60 1015.0
20260902045018 82 157 0.0 2.0 0.00 0.00 0.00 60 1015.1
20260902044524 83 157 0.0 2.0 0.00 0.00 0.00 60 1015.0
20260902044010 83 157 0.0 0.0 0.00 0.00 0.00 60 1014.9
20260902043517 83 157 0.0 0.0 0.00 0.00 0.00 60 1014.9
20260902043019 83 157 0.0 0.0 0.00 0.00 0.00 59 1014.9
20260902042507 83 157 0.0 0.0 0.00 0.00 0.00 59 1014.9
20260902042013 83 157 0.0 0.0 0.00 0.00 0.00 59 1014.8
20260902041515 84 157 0.0 0.0 0.00 0.00 0.00 59 1014.8
20260902041019 84 157 0.0 0.0 0.00 0.00 0.00 59 1014.9
20260902040518 84 157 0.0 0.0 0.00 0.00 0.00 58 1014.9
20260902040012 84 157 0.0 0.0 0.00 0.00 0.00 58 1014.8
20260902035513 84 157 0.0 0.0 0.00 0.00 0.00 58 1014.7
20260902035012 84 157 0.0 0.0 0.00 0.00 0.00 56 1014.7
20260902034533 84 157 0.0 2.0 0.00 0.00 0.00 56 1014.6
20260902034015 84 157 0.0 2.0 0.00 0.00 0.00 56 1014.7
20260902033512 84 157 0.0 2.0 0.00 0.00 0.00 56 1014.6
20260902033032 84 157 0.0 2.0 0.00 0.00 0.00 57 1014.7
20260902032517 84 157 0.0 0.0 0.00 0.00 0.00 57 1014.6
20260902032013 84 157 0.0 1.0 0.00 0.00 0.00 57 1014.6
20260902031532 84 157 0.0 2.0 0.00 0.00 0.00 57 1014.5
20260902031013 85 157 0.0 2.0 0.00 0.00 0.00 57 1014.5
20260902030520 85 157 0.0 2.0 0.00 0.00 0.00 57 1014.5
20260902030027 85 157 0.0 0.0 0.00 0.00 0.00 57 1014.4
20260902025512 86 157 0.0 0.0 0.00 0.00 0.00 57 1014.3
20260902025016 86 157 0.0 0.0 0.00 0.00 0.00 56 1014.3
20260902024504 86 157 0.0 0.0 0.00 0.00 0.00 56 1014.2
20260902024011 86 157 0.0 0.0 0.00 0.00 0.00 55 1014.2
20260902023503 86 157 0.0 0.0 0.00 0.00 0.00 54 1014.1
20260902023010 86 157 0.0 0.0 0.00 0.00 0.00 53 1014.0
20260902022508 87 157 0.0 2.0 0.00 0.00 0.00 53 1014.0
20260902022007 87 157 0.0 2.0 0.00 0.00 0.00 53 1013.9
20260902021531 87 157 0.0 2.0 0.00 0.00 0.00 52 1013.9
20260902021009 87 157 0.0 2.0 0.00 0.00 0.00 52 1013.8
20260902020503 87 157 0.0 2.0 0.00 0.00 0.00 52 1013.8
20260902020017 88 157 0.0 0.0 0.00 0.00 0.00 51 1013.7
20260902015503 88 157 0.0 0.0 0.00 0.00 0.00 51 1013.8
20260902015003 89 157 0.0 0.0 0.00 0.00 0.00 51 1013.7
20260902014511 89 157 0.0 2.0 0.00 0.00 0.00 49 1013.7
20260902014005 89 157 0.0 2.0 0.00 0.00 0.00 49 1013.6
20260902013513 90 157 0.0 2.0 0.00 0.00 0.00 48 1013.6
20260902013012 90 157 0.0 1.0 0.00 0.00 0.00 48 1013.6
20260902012501 91 157 0.0 1.0 0.00 0.00 0.00 47 1013.6
20260902012012 91 157 0.0 1.0 0.00 0.00 0.00 46 1013.5
20260902011512 91 157 0.0 2.0 0.00 0.00 0.00 45 1013.5
20260902011021 92 157 0.0 2.0 0.00 0.00 0.00 45 1013.4
20260902010507 92 158 0.0 2.0 0.00 0.00 0.00 45 1013.5
20260902010008 93 160 0.0 2.0 0.00 0.00 0.00 44 1013.5
20260902005514 93 160 0.0 2.0 0.00 0.00 0.00 43 1013.5
20260902005008 94 166 0.0 2.0 0.00 0.00 0.00 42 1013.5
20260902004504 94 166 0.0 2.0 0.00 0.00 0.00 41 1013.5
20260902004012 95 166 0.0 3.0 0.00 0.00 0.00 41 1013.5
20260902003508 95 166 1.0 6.0 0.00 0.00 0.00 40 1013.5
20260902003004 96 161 1.0 6.0 0.00 0.00 0.00 39 1013.5
20260902002512 96 158 1.0 7.0 0.00 0.00 0.00 39 1013.6
20260902002008 97 154 2.0 7.0 0.00 0.00 0.00 38 1013.7
20260902001524 97 171 0.0 6.0 0.00 0.00 0.00 37 1013.7
20260902001010 98 183 1.0 9.0 0.00 0.00 0.00 36 1013.7
20260902000516 98 210 2.0 9.0 0.00 0.00 0.00 35 1013.7
20260902000020 99 168 2.0 8.0 0.00 0.00 0.00 34 1013.7
20260901235518 99 196 3.0 8.0 0.00 0.00 0.00 34 1013.8
20260901235003 100 181 3.0 8.0 0.00 0.00 0.00 33 1013.9
20260901234534 100 189 3.0 6.0 0.00 0.00 0.00 1013.8
20260901234006 100 197 2.0 9.0 0.00 0.00 0.00 1013.8
20260901233514 100 194 2.0 9.0 0.00 0.00 0.00 32 1013.8
20260901233016 100 212 3.0 9.0 0.00 0.00 0.00 32 1013.8
20260901232505 101 186 3.0 7.0 0.00 0.00 0.00 32 1013.9
20260901232015 101 178 2.0 8.0 0.00 0.00 0.00 31 1013.9
20260901231531 101 163 3.0 8.0 0.00 0.00 0.00 31 1014.0
20260901231014 101 179 2.0 8.0 0.00 0.00 0.00 31 1014.0
20260901230512 101 174 3.0 10.0 0.00 0.00 0.00 31 1014.0
20260901230008 102 209 4.0 10.0 0.00 0.00 0.00 31 1014.0
20260901225515 102 183 2.0 10.0 0.00 0.00 0.00 31 1014.0
20260901225012 102 199 2.0 10.0 0.00 0.00 0.00 31 1013.9
20260901224506 102 188 6.0 10.0 0.00 0.00 0.00 30 1014.0
20260901224016 102 186 5.0 8.0 0.00 0.00 0.00 31 1013.9
20260901223507 101 158 3.0 13.0 0.00 0.00 0.00 31 1014.0
20260901223009 101 218 6.0 13.0 0.00 0.00 0.00 31 1014.0
20260901222514 101 213 4.0 11.0 0.00 0.00 0.00 31 1014.0
20260901222007 101 185 3.0 13.0 0.00 0.00 0.00 31 1014.0
20260901221532 101 139 5.0 13.0 0.00 0.00 0.00 30 1014.0
20260901221011 102 129 6.0 13.0 0.00 0.00 0.00 30 1014.0
20260901220513 102 202 4.0 11.0 0.00 0.00 0.00 30 1014.0
20260901220051 102 168 7.0 11.0 0.00 0.00 0.00 30 1014.1
20260901215511 102 177 2.0 11.0 0.00 0.00 0.00 31 1014.0
20260901215019 102 206 4.0 11.0 0.00 0.00 0.00 30 1014.1
20260901214521 102 156 4.0 10.0 0.00 0.00 0.00 30 1013.9
20260901214008 102 203 4.0 11.0 0.00 0.00 0.00 30 1013.9
20260901213514 102 225 2.0 14.0 0.00 0.00 0.00 31 1014.0
20260901213051 102 181 9.0 14.0 0.00 0.00 0.00 30 1014.1
20260901212506 101 162 5.0 10.0 0.00 0.00 0.00 29 1014.1
20260901212014 100 189 5.0 10.0 0.00 0.00 0.00 31 1014.1
20260901211515 100 185 2.0 9.0 0.00 0.00 0.00 32 1014.2
20260901211013 102 248 4.0 11.0 0.00 0.00 0.00 31 1014.2
20260901210512 102 213 6.0 11.0 0.00 0.00 0.00 29 1014.3
20260901210010 102 199 4.0 8.0 0.00 0.00 0.00 31 1014.4
20260901205516 101 179 2.0 6.0 0.00 0.00 0.00 32 1014.4
20260901205012 100 193 1.0 9.0 0.00 0.00 0.00 34 1014.5
20260901204507 100 116 2.0 9.0 0.00 0.00 0.00 33 1014.6
20260901204015 101 152 4.0 13.0 0.00 0.00 0.00 32 1014.6
20260901203511 102 117 5.0 12.0 0.00 0.00 0.00 31 1014.7
20260901203048 101 247 3.0 11.0 0.00 0.00 0.00 35 1014.7
20260901202511 100 200 6.0 11.0 0.00 0.00 0.00 33 1014.9
20260901202006 100 191 5.0 10.0 0.00 0.00 0.00 33 1015.0
20260901201533 100 166 1.0 9.0 0.00 0.00 0.00 35 1015.1
20260901201022 100 121 3.0 11.0 0.00 0.00 0.00 35 1015.2
20260901200507 100 136 4.0 11.0 0.00 0.00 0.00 33 1015.3
20260901200033 100 208 6.0 11.0 0.00 0.00 0.00 34 1015.4
20260901195512 101 249 5.0 10.0 0.00 0.00 0.00 33 1015.4
20260901195017 101 162 3.0 9.0 0.00 0.00 0.00 35 1015.5
20260901194536 101 125 2.0 9.0 0.00 0.00 0.00 35 1015.5
20260901194009 100 137 5.0 12.0 0.00 0.00 0.00 35 1015.6
20260901193515 100 235 7.0 12.0 0.00 0.00 0.00 37 1015.7
20260901193024 100 229 1.0 7.0 0.00 0.00 0.00 39 1015.8
20260901192508 99 150 2.0 9.0 0.00 0.00 0.00 39 1015.8
20260901192014 98 231 3.0 9.0 0.00 0.00 0.00 40 1015.9
20260901191518 99 173 4.0 9.0 0.00 0.00 0.00 38 1016.0
20260901191018 100 279 2.0 6.0 0.00 0.00 0.00 38 1015.9
20260901190513 99 250 2.0 6.0 0.00 0.00 0.00 38 1016.0
20260901190015 100 169 1.0 6.0 0.00 0.00 0.00 38 1016.1
20260901185516 100 150 0.0 9.0 0.00 0.00 0.00 41 1016.1
20260901185015 98 150 5.0 9.0 0.00 0.00 0.00 39 1016.2
20260901184524 99 143 2.0 8.0 0.00 0.00 0.00 40 1016.3
20260901184017 98 202 2.0 7.0 0.00 0.00 0.00 41 1016.3
20260901183510 98 319 1.0 4.0 0.00 0.00 0.00 39 1016.4
20260901183039 98 213 2.0 4.0 0.00 0.00 0.00 44 1016.4
20260901182515 97 249 1.0 5.0 0.00 0.00 0.00 42 1016.5
20260901182010 96 248 3.0 5.0 0.00 0.00 0.00 42 1016.7
20260901181534 96 247 3.0 7.0 0.00 0.00 0.00 42 1016.7
20260901181014 97 235 3.0 6.0 0.00 0.00 0.00 43 1016.7
20260901180508 96 160 2.0 4.0 0.00 0.00 0.00 43 1016.8
20260901180031 96 216 2.0 7.0 0.00 0.00 0.00 42 1016.8
20260901175514 96 195 1.0 8.0 0.00 0.00 0.00 42 1016.9
20260901175015 97 208 3.0 8.0 0.00 0.00 0.00 42 1017.0
20260901174528 97 240 4.0 7.0 0.00 0.00 0.00 43 1017.1
20260901174016 97 192 4.0 7.0 0.00 0.00 0.00 42 1017.2
20260901173521 97 231 2.0 8.0 0.00 0.00 0.00 42 1017.2
20260901173045 97 221 4.0 11.0 0.00 0.00 0.00 42 1017.3
20260901172507 97 214 7.0 11.0 0.00 0.00 0.00 42 1017.3
20260901172007 97 247 3.0 8.0 0.00 0.00 0.00 44 1017.4
20260901171513 97 301 2.0 9.0 0.00 0.00 0.00 43 1017.4
20260901171008 97 288 2.0 9.0 0.00 0.00 0.00 46 1017.4
20260901170503 96 321 3.0 8.0 0.00 0.00 0.00 45 1017.5
20260901170012 96 217 2.0 6.0 0.00 0.00 0.00 1017.5